Погода в Ломе

Болгария     43°49′32″N   23°14′15″E
темп.,
°C
ветер,
м/с
пор.,
м/с
влажн.,
%
обл.,
%
осадки,
мм/ч
давл.,
гПа
погр.,
м
17 сентября, пт
пт1700:00+25з2235100 0.0 101523
03:00+22зсз1141100 0.0 101411
06:00+22юз1143100 0.0 101311
09:00+24зюз2240100 0.0 1013128
12:00+27вюв1233100 0.1 1012236
15:00+34з272299 0.1 10083347
18:00+25сз374798 0.1 1009203
21:00+21зсз226582 0.4 100913
18 сентября, сб
сб1800:00+18зсз37872 1.1 1011191
03:00+19зсз388331 1.4 1011279
06:00+18зсз7138744 0.0 1011398
09:00+18сз81266100 0.1 1012650
12:00+19зсз71264100 0.0 1013635
15:00+24з9103867 0.0 10121380
18:00+25з79363 0.0 10111740
21:00+18зсз38549 0.0 1013142
19 сентября, вс
вс1900:00+16зюз356527 0.0 101385
03:00+18зсз3757100 0.1 1013226
06:00+16юз3482100 1.7 1013108
09:00+16юз4683100 2.8 1014210
12:00+22зсз3351100 0.0 1013845
15:00+24з564982 0.1 10121112
18:00+25сз354298 0.0 1010466
21:00+20зсз3355100 0.1 101135
20 сентября, пн
пн2000:00+17зюз3484100 1.4 1012113
03:00+17з2391100 2.6 1013134
06:00+16з23917 0.1 101344
09:00+19з48754 0.1 1014351
12:00+24зсз56495 0.0 10141327
15:00+27зсз563513 0.0 10131761
18:00+27сз3431100 0.0 10111733
21:00+21сз3750100 0.0 1014177
21 сентября, вт
вт2100:00+18зсз3767100 0.4 1016207
03:00+18з2676100 0.9 1016192
06:00+17з3878100 0.1 1016209
09:00+19зсз49626 0.1 1017391
12:00+24зсз79355 0.0 10181599
15:00+25сз9103011 0.0 10182161
18:00+23зсз810293 0.0 10181658
21:00+18з511385 0.0 1020293